PGT2341 LTBJ-LTFJ

Flight info

Callsign PGT2341
Flight time N/A
Altitude 30000
Route BERGO UG80 DUGLA UY371 VUTZO
Aircraft A21N/M-SDE3FGHIRWY/LB1

Departure

Time N/A
Airport Adnan Menderes International Airport (LTBJ)

Arrival

Time 2026-05-01 10:48
Airport Istanbul Sabiha Gökçen International Airport (LTFJ)
Time Latitude Longitude Altitude Speed Heading
2026-05-01 10:24 40.20726 27.52368 26240 ft 445 kts
2026-05-01 10:24 40.26706 27.54345 25158 ft 438 kts 10°
2026-05-01 10:25 40.32272 27.57486 24078 ft 440 kts 27°
2026-05-01 10:25 40.37201 27.62156 22761 ft 428 kts 34°
2026-05-01 10:26 40.39554 27.64514 21707 ft 423 kts 34°
2026-05-01 10:26 40.41875 27.66820 20685 ft 416 kts 34°
2026-05-01 10:26 40.46518 27.70962 18728 ft 398 kts 25°
2026-05-01 10:27 40.51446 27.73747 16882 ft 379 kts 17°
2026-05-01 10:27 40.56331 27.76149 15497 ft 368 kts 18°
2026-05-01 10:28 40.58688 27.77325 15282 ft 356 kts 18°
2026-05-01 10:28 40.63247 27.79616 14258 ft 353 kts 18°
2026-05-01 10:28 40.65548 27.80798 13766 ft 351 kts 21°
2026-05-01 10:29 40.68711 27.85400 12804 ft 353 kts 73°
2026-05-01 10:29 40.68835 27.88587 12377 ft 351 kts 97°
2026-05-01 10:30 40.68116 27.94848 11810 ft 334 kts 94°
2026-05-01 10:30 40.67939 28.00836 10986 ft 327 kts 89°
2026-05-01 10:31 40.67919 28.06781 10153 ft 320 kts 88°
2026-05-01 10:31 40.67908 28.12535 9507 ft 307 kts 88°
2026-05-01 10:32 40.67894 28.17964 9079 ft 289 kts 88°
2026-05-01 10:32 40.67888 28.19732 8843 ft 286 kts 88°
2026-05-01 10:32 40.67874 28.24063 8223 ft 282 kts 88°
2026-05-01 10:33 40.67864 28.26618 7845 ft 279 kts 88°
2026-05-01 10:34 40.67635 28.41729 6496 ft 217 kts 87°
2026-05-01 10:35 40.68078 28.45484 6152 ft 211 kts 73°
2026-05-01 10:35 40.68427 28.47393 6081 ft 218 kts 73°
2026-05-01 10:35 40.68773 28.49358 5954 ft 220 kts 73°
2026-05-01 10:35 40.69105 28.51320 5838 ft 220 kts 74°
2026-05-01 10:36 40.69747 28.55240 5628 ft 218 kts 74°
2026-05-01 10:36 40.69854 28.55905 5594 ft 218 kts 74°
2026-05-01 10:38 40.71640 28.67121 4983 ft 215 kts 75°
2026-05-01 10:38 40.72151 28.70365 4790 ft 215 kts 75°
2026-05-01 10:38 40.72453 28.72288 4670 ft 216 kts 75°
2026-05-01 10:38 40.72757 28.74228 4576 ft 215 kts 75°
2026-05-01 10:39 40.73056 28.76144 4482 ft 213 kts 75°
2026-05-01 10:39 40.73355 28.78045 4379 ft 213 kts 74°
2026-05-01 10:39 40.73656 28.79974 4288 ft 212 kts 74°
2026-05-01 10:39 40.73951 28.81865 4179 ft 212 kts 74°
2026-05-01 10:40 40.74250 28.83761 4108 ft 212 kts 74°
2026-05-01 10:40 40.74551 28.85678 4005 ft 212 kts 75°
2026-05-01 10:40 40.74844 28.87556 3988 ft 211 kts 74°
2026-05-01 10:40 40.75141 28.89451 3968 ft 212 kts 74°
2026-05-01 10:41 40.75366 28.91411 3971 ft 213 kts 79°
2026-05-01 10:41 40.75523 28.93326 3957 ft 206 kts 80°
2026-05-01 10:41 40.76167 28.96867 4016 ft 193 kts 65°
2026-05-01 10:42 40.76744 28.98464 3988 ft 191 kts 60°
2026-05-01 10:42 40.77360 29.00022 3980 ft 191 kts 59°
2026-05-01 10:42 40.77969 29.01582 3960 ft 190 kts 60°
2026-05-01 10:42 40.78564 29.03150 3830 ft 191 kts 60°
2026-05-01 10:43 40.79134 29.04682 3643 ft 185 kts 60°
2026-05-01 10:43 40.79694 29.06210 3471 ft 182 kts 61°
2026-05-01 10:43 40.80239 29.07707 3325 ft 178 kts 61°
2026-05-01 10:43 40.80756 29.09137 3140 ft 167 kts 61°
2026-05-01 10:44 40.81242 29.10478 3191 ft 159 kts 60°
2026-05-01 10:44 40.81717 29.11783 3213 ft 158 kts 60°
2026-05-01 10:44 40.82194 29.13094 3163 ft 159 kts 60°
2026-05-01 10:44 40.82674 29.14411 2968 ft 158 kts 60°
2026-05-01 10:45 40.83149 29.15713 2752 ft 158 kts 60°
2026-05-01 10:45 40.83627 29.17023 2539 ft 157 kts 60°
2026-05-01 10:45 40.84084 29.18276 2311 ft 143 kts 60°
2026-05-01 10:45 40.84480 29.19367 2104 ft 129 kts 59°
2026-05-01 10:46 40.84876 29.20443 1952 ft 128 kts 59°
2026-05-01 10:46 40.85267 29.21505 1791 ft 129 kts 59°
2026-05-01 10:46 40.85657 29.22568 1629 ft 129 kts 59°
2026-05-01 10:46 40.86057 29.23658 1450 ft 127 kts 59°
2026-05-01 10:47 40.86418 29.24645 1257 ft 118 kts 59°
2026-05-01 10:47 40.86781 29.25628 1109 ft 118 kts 60°
2026-05-01 10:47 40.87141 29.26607 957 ft 118 kts 60°
2026-05-01 10:47 40.87502 29.27596 783 ft 120 kts 61°
2026-05-01 10:48 40.87864 29.28571 621 ft 120 kts 60°
2026-05-01 10:48 40.88231 29.29567 468 ft 121 kts 62°
2026-05-01 10:48 40.88600 29.30577 333 ft 121 kts 62°
2026-05-01 10:48 40.88876 29.31325 321 ft 49 kts 71°
2026-05-01 10:49 40.88954 29.31425 321 ft 9 kts 273°
2026-05-01 10:49 40.88959 29.31341 321 ft 9 kts 279°
2026-05-01 10:49 40.88972 29.31245 321 ft 12 kts 280°
2026-05-01 10:49 40.89022 29.31191 321 ft 11 kts 34°
2026-05-01 10:50 40.89067 29.31272 321 ft 11 kts 67°
2026-05-01 10:50 40.89100 29.31369 321 ft 11 kts 61°
2026-05-01 10:50 40.89150 29.31446 321 ft 11 kts
2026-05-01 10:50 40.89223 29.31432 321 ft 10 kts 38°
2026-05-01 10:51 40.89281 29.31478 321 ft 10 kts 350°
2026-05-01 10:51 40.89350 29.31439 321 ft 10 kts 334°
2026-05-01 10:51 40.89421 29.31396 321 ft 11 kts 335°
2026-05-01 10:51 40.89494 29.31352 321 ft 11 kts 335°
2026-05-01 10:52 40.89567 29.31302 321 ft 12 kts 331°
2026-05-01 10:52 40.89643 29.31251 321 ft 12 kts 334°
2026-05-01 10:52 40.89721 29.31202 321 ft 12 kts 335°
2026-05-01 10:52 40.89788 29.31134 321 ft 11 kts 322°
2026-05-01 10:53 40.89862 29.31081 321 ft 12 kts 334°
2026-05-01 10:53 40.89952 29.31043 321 ft 14 kts 337°
2026-05-01 10:53 40.90056 29.30977 321 ft 17 kts 334°
2026-05-01 10:53 40.90161 29.30911 321 ft 16 kts 333°
2026-05-01 10:54 40.90247 29.30899 321 ft 13 kts 49°
2026-05-01 10:54 40.90291 29.31008 321 ft 13 kts 64°
2026-05-01 10:54 40.90333 29.31121 321 ft 13 kts 63°
2026-05-01 10:54 40.90378 29.31233 321 ft 14 kts 61°
2026-05-01 10:55 40.90419 29.31350 321 ft 14 kts 65°
2026-05-01 10:55 40.90458 29.31461 321 ft 7 kts 73°
2026-05-01 10:55 40.90450 29.31504 321 ft 7 kts 131°